www.pogodaiklimat.ru

Погода и климат >> Архив погоды >> Россия >> Краснодарский край >> Славянск-на-Кубани


ПОГОДА в Славянске-на-Кубани

  • Прогноз погоды в Славянске-на-Кубани
  • Монитор погоды в Славянске-на-Кубани

АРХИВ ПОГОДЫ в Славянске-на-Кубани

Время (UTC), дата Ветер
(напр.,м/с)
 
Видим.   Явления Облачность Т
(С)
Тd
(С)
f
(%)
Тe
(С)
Тes
(С)
Комфортность P
(гПа)
Po
(гПа)
Тmin
(С)
Tmax
(С)
R
(мм)
R24
(мм)
S
(см)
21 17.05 В 1 10 км ясно +20.0 +12.7 63 +23 +23 комфорт 1008.0 1006.9
00 18.05 СВ 1 10 км 6/0
[Ac trans Ci fib]
+17.9 +12.4 70 +19 +19 1007.0 1005.9
03 18.05 В 1 10 км 10/0
[Ac trans Ci fib]
+17.5 +13.0 75 +19 +19 1007.0 1005.9 +17.2
06 18.05 В 2 10 км 10/0
[Ac und]
+20.4 +14.5 69 +24 +26 комфорт 1006.7 1005.6
09 18.05 В 2 10 км 10/0
[Ac As Ci fib]
+23.3 +15.2 60 +27 +37 душно 1007.1 1006.0
12 18.05 В 4 10 км 8/0
[Ci fib]
+28.2 +14.8 44 +31 +38 душно 1005.6 1004.6
15 18.05 В 3 10 км 3/0
[Ci fib]
+27.5 +15.1 47 +30 +32 жарко 1004.4 1003.4 +28.6
18 18.05 В 2 10 км 10/0
[Ac trans Ci]
+22.7 +15.0 62 +27 +27 душно 1005.6 1004.5
21 18.05 СВ 1 10 км 10/0
[Ci fib]
+19.9 +14.2 70 +23 +23 комфорт 1005.1 1004.1
00 19.05 В 2 10 км 10/0
[Ac und]
+18.5 +12.3 67 +20 +20 1004.7 1003.7
03 19.05 СВ 2 10 км 10/3 600 м
[Cu med, cong Ac As Ci fib]
+17.6 +12.4 72 +18 +18 1005.8 1004.7 +17.5
06 19.05 В 2 10 км 9/0
[Ac trans]
+20.9 +14.5 67 +25 +29 комфорт 1006.9 1005.8
09 19.05 Ю 1 4000 м гроза, ливневой дождь 10/3 300 м
[Cb cap Ac trans Ci fib]
+22.2 +17.2 73 +27 +34 душно 1008.9 1007.8
12 19.05 ЮВ 1 10 км гроза без осадков {ливн. осадки} 9/8 300 м
[Cb calv Ac As]
+19.8 +18.3 91 +24 +26 комфорт 1010.8 1009.7
15 19.05 ЮВ 1 10 км в посл. час ливневой дождь {гроза} 10/6 600 м
[Cu med, cong Ac trans Ci]
+21.7 +17.6 78 +26 +27 душно 1011.1 1010.0 +24.7 9
18 19.05 штиль 0 10 км {гроза, ливн. осадки} 8/0
[Ac trans Ci fib]
+17.8 +16.1 90 +18 +18 1011.9 1010.8
21 19.05 штиль 0 10 км 9/0
[Ac trans]
+16.7 +15.6 93 +17 +17 1012.7 1011.6
00 20.05 СЗ 2 10 км 10/10 600 м
[]
+17.8 +16.6 93 +18 +18 1013.2 1012.1
03 20.05 З 1 4000 м дымка 10/0
[Ac trans Ci]
+17.6 +16.4 93 +19 +19 1013.8 1012.7 +16.2 0.1
06 20.05 СЗ 1 10 км 10/4 600 м
[Cu med, cong Ac und]
+20.1 +16.9 82 +24 +26 комфорт 1014.5 1013.5
09 20.05 С 1 10 км 10/8 600 м
[Cb calv Ac trans Ci]
+22.9 +16.9 69 +28 +30 душно 1015.6 1014.5
12 20.05 ЮВ 1 10 км в посл. час гроза {ливн. осадки} 10/8 600 м
[Cb calv Ac trans Ci]
+19.5 +17.5 88 +23 +24 комфорт 1016.3 1015.3
15 20.05 СВ 1 10 км 3/0
[Ci fib]
+22.7 +15.7 65 +27 +30 душно 1015.7 1014.6 +24.1 3
18 20.05 штиль 0 10 км 3/0
[Ci fib]
+17.2 +15.8 91 +17 +17 1016.3 1015.2
21 20.05 В 1 4000 м дымка ясно +16.0 +15.0 94 +17 +17 1015.7 1014.6
00 21.05 штиль 0 4000 м дымка ясно +14.3 +13.4 94 +14 +14 1015.8 1014.7
03 21.05 В 2 4000 м дымка {туман} 3/0
[Ci fib]
+14.7 +12.7 88 +14 +15 1016.3 1015.2 +14.0
06 21.05 В 1 10 км {туман} 10/0
[Ci]
+21.8 +15.7 68 +25 +34 комфорт 1017.1 1016.0
09 21.05 В 4 10 км 8/0
[Ci fib]
+24.7 +14.8 54 +27 +38 жарко 1016.1 1015.1
12 21.05 В 3 10 км 10/4 600 м
[Cu hum Ci]
+26.7 +14.4 47 +29 +34 жарко 1015.8 1014.8
15 21.05 В 1 10 км 10/3 600 м
[Cu hum Ac trans Ci]
+25.7 +14.4 50 +28 +29 жарко 1014.8 1013.8 +26.8
18 21.05 З 3 10 км 10/8 600 м
[Sc Ac trans]
+20.7 +16.6 77 +24 +24 комфорт 1014.6 1013.5
21 21.05 З 2 10 км ясно +17.2 +15.6 90 +18 +18 1013.9 1012.8
00 22.05 З 1 4000 м дымка 8/0
[Ci]
+16.3 +15.2 93 +17 +17 1012.8 1011.7
03 22.05 З 1 1000 м дымка 10/0
[Ac und]
+16.3 +15.2 93 +17 +17 1012.8 1011.7 +15.9
06 22.05 ЮЗ 2 10 км 10/0
[Ac und]
+18.7 +13.6 72 +20 +23 1013.3 1012.3
09 22.05 З 1 10 км {ливн. осадки} 10/6 600 м
[Cb calv Ac trans]
+18.6 +15.5 82 +21 +24 комфорт 1013.3 1012.2
12 22.05 Ю 1 10 км {ливн. осадки} 8/5 600 м
[Cu med, cong Ci fib]
+23.0 +15.7 63 +27 +34 душно 1013.2 1012.2
15 22.05 Ю 1 10 км 8/4 600 м
[Cu med, cong Ci fib]
+21.6 +14.6 64 +25 +26 комфорт 1012.4 1011.3 +24.0 2
18 22.05 штиль 0 10 км ясно +17.1 +14.2 83 +17 +17 1013.1 1012.0
21 22.05 штиль 0 10 км зарница 8/4 600 м
[Cb calv Ci]
+15.4 +13.5 88 +15 +15 1012.9 1011.8
00 23.05 штиль 0 10 км {гроза} 4/0
[Ci fib]
+12.7 +11.0 89 +12 +12 1012.4 1011.3
03 23.05 штиль 0 10 км ясно +14.7 +13.4 92 +14 +15 1012.3 1011.2 +12.1
06 23.05 ЮЗ 1 10 км 4/0
[Ci fib]
+21.1 +14.0 64 +24 +34 комфорт 1011.8 1010.7
09 23.05 ЮЗ 3 10 км 6/6 600 м
[Cu hum]
+24.2 +11.0 43 +25 +32 комфорт 1011.5 1010.4
12 23.05 ЮЗ 2
{11}
10 км 9/3 600 м
[Cu med, cong Ac trans]
+22.9 +9.6 43 +25 +29 комфорт 1011.6 1010.5
15 23.05 ЮЗ 2 10 км 3/0
[Ac trans Ci fib]
+23.5 +10.4 44 +25 +27 комфорт 1010.7 1009.6 +25.8
18 23.05 штиль 0 10 км 3/0
[Ac trans]
+17.4 +12.6 73 +17 +17 1011.4 1010.3
21 23.05 ЮЗ 1 10 км 4/0
[Ac trans]
+16.6 +14.2 86 +17 +17 1011.0 1009.9
00 24.05 штиль 0 10 км ясно +15.2 +13.5 90 +15 +15 1010.4 1009.4
03 24.05 штиль 0 10 км ясно +14.7 +13.7 94 +14 +15 1010.5 1009.4 +13.4
06 24.05 ЮЗ 2 10 км 3/3 600 м
[Cu hum]
+21.4 +15.7 70 +25 +32 комфорт 1010.3 1009.2
09 24.05 ЮЗ 2 10 км 8/8 600 м
[Cb calv]
+25.5 +13.5 47 +28 +31 жарко 1010.0 1008.9
12 24.05 ЮЗ 2 10 км 9/4 600 м
[Cu med, cong Ci]
+26.8 +11.7 39 +28 +35 жарко 1008.8 1007.8
15 24.05 С 2 10 км 10/4 600 м
[Cb calv Ac trans Ci]
+23.6 +15.3 60 +27 +27 жарко 1008.0 1006.9 +27.3
18 24.05 СЗ 1 10 км 8/0
[Ac trans]
+20.0 +16.1 78 +24 +24 комфорт 1008.2 1007.2

 

Местоположение метеостанции Славянск-на-Кубани (Краснодарский край, Россия): широта 45.28 долгота 38.12 высота над уровнем моря 9 м.

В архиве по умолчанию представлена погода в Славянске-на-Кубани за последнюю неделю. Архивные данные за месяц целиком и за предыдущие месяцы, начиная с января 2011 года, Вы можете получить, выбрав интересующий диапазон дат из раскрывающегося списка и нажав кнопку "Ввод!".


*Определитесь, кто Вы:
робот инопланетянин человек

Внимание! Время в таблицах - всемирное. Для получения местного времени необходимо прибавить поправку, которая равна 3 ч.

Смотрите также архив погоды в соседних городах и на ближайших метеорологических станциях:

Погода в Крымске (Краснодарский край, Россия) (41 км)
Погода в Темрюке (Краснодарский край, Россия) (58 км)
Погода в Новороссийске (Краснодарский край, Россия) (66 км)
Погода в Тимашевске (Краснодарский край, Россия) (74 км)
Погода в Краснодаре (Краснодарский край, Россия) (76 км)
Погода в Геленджике (Краснодарский край, Россия) (79 км)
Погода в Анапе (Краснодарский край, Россия) (80 км)
Погода в Приморско-Ахтарске (Краснодарский край, Россия) (83 км)
Погода в Горячем Ключе (Краснодарский край, Россия) (106 км)
Погода в Кореновске (Краснодарский край, Россия) (108 км)

Пояснения к столбцам:

Ветер - указаны скорость ветра в м/с - средняя за 10 мин, порывы в срок и между сроками (в фигурных скобках) и направление, откуда дует ветер: С - северный, СВ - северо-восточный, В - восточный, ЮВ - юго-восточный, Ю - южный, ЮЗ - юго-западный, З - западный, СЗ - северо-западный.
Видимость - горизонтальная дальность видимости в метрах или километрах. При видимости от 1 до 10 км при отсутствии осадков обычно наблюдается дымка, при ухудшении видимости до 1 км и менее - туман. В сухую погоду видимость может ухудшаться дымом, пылью или мглою.
Явления - указаны атмосферные явления, наблюдавшиеся в срок или в последний час перед сроком; фигурными скобками обозначены явления, наблюдавшиеся между сроками (за 1-3 часа до срока); квадратными скобками обозначены град или гололедные отложения с указанием их диаметра в мм.
Облачность - указаны через наклонную черту общая и нижняя облачность в баллах и высота нижней границы облаков в метрах; квадратными скобками обозначены формы облаков: Ci - перистые, Cs - перисто-слоистые, Cc - перисто-кучевые, Ac - высококучевые, As - высокослоистые, Sc - слоисто-кучевые, Ns - слоисто-дождевые, Cu - кучевые, Cb - кучево-дождевые. Подробнее классификацию облаков см. в Атласе облаков (PDF).
T - Температура воздуха - температура, измеренная на высоте 2 м над землей.
Td - Температура точки росы - температура, при понижении до которой содержащийся в воздухе водяной пар достигнет насыщения.
f - Относительная влажность воздуха - влажноcть воздуха, измеренная на высоте 2 м над землей.
Te - Эффективная температура - температура, которую ощущает одетый по сезону человек в тени. Характеристика душности погоды. При расчете учитывается влияние влажности воздуха и скорости ветра на теплоощущения человека.
Tes - Эффективная температура на солнце - температура, которую ощущает человек, с поправкой на солнечный нагрев. Характеристика знойности погоды. Зависит от высоты солнца над горизонтом, облачности и скорости ветра. Ночью, в пасмурную погоду, а также при ветре 12 м/с и более поправка равна нулю.
P - Атмосферное давление - приведенное к уровню моря атмосферное давление.
Po - Атмосферное давление - измеренное на уровне метеостанции атмосферное давление.
Tmin - Минимальная температура - минимум температуры воздуха на высоте 2 м над землей.
Tmax - Максимальная температура - максимум температуры воздуха на высоте 2 м над землей.
R - Количество осадков - Количество выпавших осадков за период времени, мм. При наведении курсора мыши на число - период времени, за который выпало указанное количество осадков.
R24 - Количество осадков - Количество выпавших осадков за 24 часа, мм.
S - Снежный покров - Высота снежного покрова, см. При наведении курсора мыши на число - состояние снежного покрова и степень покрытия местности в баллах.